Weather in Lunino

Russia / Penza Oblast     53°35′43″N   45°13′39″E
temp.,
°C
wind,
m/s
gust,
m/s
humid.,
%
clouds,
%
prec.,
mm/h
press.,
hPa
HPBL,
m
7 march, sun
sun700:00−11wsw0095100 0.1 101421
03:00−12wnw229795 0.3 101421
06:00−15w229778 0.0 101420
09:00−12sw369554 0.1 1014246
12:00−7sw6108685 0.0 1011601
15:00−6sw7138793 0.0 1007849
18:00−5sw81693100 0.8 10041104
21:00−5sw91793100 2.4 10001207
8 march, mon
mon800:00−4sw91693100 0.8 9961050
03:00−3wsw91595100 1.6 9961064
06:00−7wsw6149287 0.3 999697
09:00−7wsw6128747 0.3 1002605
12:00−4wsw610815 0.0 1002988
15:00−3sw589048 0.2 1002862
18:00−5wsw3995100 0.7 1002371
21:00−9wsw4109189 0.8 1004257
9 march, tue
tue900:00−12w399537 0.0 1006165
03:00−16w339723 0.0 100863
06:00−17wnw129967 0.0 101020
09:00−13wnw259468 0.0 1011243
12:00−10nw349099 0.0 1012368
15:00−9nw3589100 0.0 1012511
18:00−13wnw339699 0.0 101372
21:00−13nw379699 0.2 1015251
10 march, wed
wed1000:00−16nnw369789 0.1 1016136
03:00−20nw2310085 0.1 101748
06:00−22nw359986 0.0 1019110
09:00−19nnw469592 0.1 1020321
12:00−17nw4689100 0.1 1022582
15:00−17nw4788100 0.1 1022703
18:00−20nw3697100 0.1 1024155
21:00−24nnw2399100 0.1 102626
11 march, thu
thu1100:00−27nw229823 0.0 102719
03:00−27wnw229711 0.0 102819
06:00−27w22970 0.0 102920
09:00−21wnw37893 0.0 1029268
12:00−15wnw47850 0.0 1029406
15:00−12wnw47820 0.0 1028476
18:00−17wsw33930 0.0 102940
21:00−20wsw23940 0.0 103137